| time (UTC) | temp F | wind direction | speed knots | gust knots | rain 1hr in | rain 24hr in | rain mn in | humidity % | barometer mb |
| 20260508151546 | 74 | 205 | 2.6 | 7.8 | 0.00 | 0.00 | 0.00 | 49 | 1011.7 |
| 20260508150039 | 74 | 249 | 3.5 | 7.0 | 0.00 | 0.00 | 0.00 | 53 | 1011.8 |
| 20260508144538 | 73 | 261 | 3.5 | 7.0 | 0.00 | 0.00 | 0.00 | 51 | 1012.0 |
| 20260508143036 | 73 | 9 | 1.7 | 4.3 | 0.00 | 0.00 | 0.00 | 50 | 1012.0 |
| 20260508141536 | 73 | 210 | 0.9 | 4.3 | 0.00 | 0.00 | 0.00 | 46 | 1012.1 |
| 20260508140032 | 73 | 209 | 0.9 | 5.2 | 0.00 | 0.00 | 0.00 | 52 | 1012.3 |
| 20260508134529 | 72 | 290 | 0.9 | 6.1 | 0.00 | 0.00 | 0.00 | 52 | 1012.4 |
| 20260508133040 | 71 | 237 | 1.7 | 7.0 | 0.00 | 0.00 | 0.00 | 56 | 1012.5 |
| 20260508131525 | 71 | 325 | 2.6 | 6.1 | 0.00 | 0.00 | 0.00 | 55 | 1012.6 |
| 20260508130022 | 71 | 316 | 2.6 | 5.2 | 0.00 | 0.00 | 0.00 | 54 | 1012.7 |
| 20260508124528 | 71 | 311 | 2.6 | 7.0 | 0.00 | 0.00 | 0.00 | 60 | 1012.8 |
| 20260508123017 | 70 | 38 | 0.9 | 4.3 | 0.00 | 0.00 | 0.00 | 62 | 1012.8 |
| 20260508121518 | 69 | 342 | 4.3 | 7.0 | 0.00 | 0.00 | 0.00 | 62 | 1012.9 |
| 20260508120013 | 69 | 331 | 1.7 | 5.2 | 0.00 | 0.00 | 0.00 | 62 | 1013.0 |
| 20260508114510 | 69 | 314 | 1.7 | 6.1 | 0.00 | 0.00 | 0.00 | 66 | 1013.2 |
| 20260508113009 | 68 | 171 | 1.7 | 5.2 | 0.00 | 0.00 | 0.00 | 65 | 1013.2 |
| 20260508111507 | 67 | 222 | 1.7 | 4.3 | 0.00 | 0.00 | 0.00 | 68 | 1013.4 |
| 20260508110003 | 66 | 221 | 0.0 | 5.2 | 0.00 | 0.00 | 0.00 | 67 | 1013.6 |
| 20260508104600 | 65 | 296 | 0.9 | 4.3 | 0.00 | 0.00 | 0.00 | 70 | 1013.7 |
| 20260508103058 | 65 | 309 | 0.9 | 5.2 | 0.00 | 0.00 | 0.00 | 72 | 1013.9 |
| 20260508101554 | 64 | 284 | 2.6 | 4.3 | 0.00 | 0.00 | 0.00 | 76 | 1014.0 |
| 20260508100050 | 63 | 257 | 2.6 | 4.3 | 0.00 | 0.00 | 0.00 | 77 | 1014.1 |
| 20260508094545 | 62 | 176 | 0.9 | 3.5 | 0.00 | 0.00 | 0.00 | 77 | 1014.2 |
| 20260508093042 | 61 | 274 | 0.0 | 3.5 | 0.00 | 0.00 | 0.00 | 79 | 1014.3 |
| 20260508091604 | 59 | 337 | 1.7 | 4.3 | 0.00 | 0.00 | 0.00 | 81 | 1014.3 |
| 20260508090033 | 59 | 236 | 1.7 | 3.5 | 0.00 | 0.00 | 0.00 | 84 | 1014.4 |
| 20260508084532 | 57 | 250 | 1.7 | 3.5 | 0.00 | 0.00 | 0.00 | 85 | 1014.5 |
| 20260508083033 | 55 | 276 | 1.7 | 3.5 | 0.00 | 0.00 | 0.00 | 87 | 1014.6 |
| 20260508081523 | 54 | 269 | 0.9 | 3.5 | 0.00 | 0.00 | 0.00 | 90 | 1014.6 |
| 20260508080019 | 52 | 349 | 0.0 | 2.6 | 0.00 | 0.00 | 0.00 | 92 | 1014.5 |
| 20260508074518 | 51 | 229 | 0.9 | 2.6 | 0.00 | 0.00 | 0.00 | 94 | 1014.6 |
| 20260508073012 | 50 | 269 | 0.0 | 2.6 | 0.00 | 0.00 | 0.00 | 95 | 1014.6 |
| 20260508071510 | 49 | 79 | 0.0 | 1.7 | 0.00 | 0.00 | 0.00 | 96 | 1014.4 |
| 20260508070010 | 48 | 117 | 0.0 | 1.7 | 0.00 | 0.00 | 0.00 | 96 | 1014.3 |
| 20260508064510 | 47 | 155 | 0.9 | 1.7 | 0.00 | 0.00 | 0.00 | 97 | 1014.2 |
| 20260508063003 | 47 | 186 | 0.0 | 1.7 | 0.00 | 0.00 | 0.00 | 96 | 1014.2 |
| 20260508061600 | 46 | 279 | 0.0 | 0.0 | 0.00 | 0.00 | 0.00 | 96 | 1014.1 |
| 20260508060058 | 46 | 279 | 0.0 | 0.9 | 0.00 | 0.00 | 0.00 | 96 | 1014.1 |
| 20260508054555 | 45 | 294 | 0.0 | 1.7 | 0.00 | 0.00 | 0.00 | 96 | 1014.0 |
| 20260508053100 | 44 | 294 | 0.0 | 2.6 | 0.00 | 0.00 | 0.00 | 96 | 1014.0 |
| 20260508051616 | 43 | 92 | 0.0 | 0.0 | 0.00 | 0.00 | 0.00 | 96 | 1013.9 |
| 20260508050050 | 42 | 92 | 0.9 | 1.7 | 0.00 | 0.00 | 0.00 | 95 | 1013.7 |
| 20260508044547 | 42 | 92 | 0.0 | 0.0 | 0.00 | 0.00 | 0.00 | 95 | 1013.7 |
| 20260508043045 | 42 | 92 | 0.0 | 2.6 | 0.00 | 0.00 | 0.00 | 95 | 1013.8 |
| 20260508041546 | 42 | 130 | 0.0 | 0.0 | 0.00 | 0.00 | 0.00 | 94 | 1013.7 |
| 20260508040042 | 42 | 130 | 0.0 | 0.0 | 0.00 | 0.00 | 0.00 | 94 | 1013.7 |
| 20260508034540 | 43 | 130 | 0.0 | 0.0 | 0.00 | 0.00 | 0.00 | 94 | 1013.7 |
| 20260508033047 | 43 | 130 | 0.0 | 0.0 | 0.00 | 0.00 | 0.00 | 94 | 1013.6 |
| 20260508031539 | 43 | 130 | 0.0 | 0.0 | 0.00 | 0.00 | 0.00 | 94 | 1013.7 |
| 20260508030044 | 44 | 130 | 0.0 | 0.0 | 0.00 | 0.00 | 0.00 | 94 | 1013.7 |
| 20260508024535 | 44 | 130 | 0.0 | 0.9 | 0.00 | 0.00 | 0.00 | 94 | 1013.6 |
| 20260508023035 | 45 | 15 | 0.0 | 0.0 | 0.00 | 0.00 | 0.00 | 93 | 1013.5 |
| 20260508021535 | 45 | 321 | 0.0 | 0.0 | 0.00 | 0.00 | 0.00 | 94 | 1013.5 |
| 20260508020031 | 45 | 321 | 0.0 | 0.0 | 0.00 | 0.00 | 0.00 | 94 | 1013.6 |
| 20260508014529 | 45 | 321 | 0.0 | 0.0 | 0.00 | 0.00 | 0.00 | 93 | 1013.5 |
| 20260508013029 | 46 | 321 | 0.0 | 0.0 | 0.00 | 0.00 | 0.00 | 93 | 1013.4 |
| 20260508011532 | 46 | 321 | 0.0 | 0.0 | 0.00 | 0.00 | 0.00 | 93 | 1013.4 |
| 20260508010037 | 46 | 303 | 0.0 | 0.0 | 0.00 | 0.00 | 0.00 | 94 | 1013.4 |
| 20260508004527 | 46 | 303 | 0.0 | 0.0 | 0.00 | 0.01 | 0.00 | 94 | 1013.4 |
| 20260508003025 | 46 | 303 | 1.7 | 3.5 | 0.00 | 0.01 | 0.00 | 93 | 1013.4 |
| 20260508001524 | 46 | 123 | 0.0 | 0.0 | 0.00 | 0.01 | 0.00 | 92 | 1013.3 |
| 20260508000024 | 46 | 123 | 0.0 | 0.0 | 0.00 | 0.01 | 0.00 | 91 | 1013.1 |
| 20260507234520 | 46 | 123 | 0.0 | 0.0 | 0.00 | 0.01 | 0.00 | 91 | 1013.3 |
| 20260507233019 | 47 | 103 | 0.0 | 0.0 | 0.00 | 0.01 | 0.00 | 91 | 1013.4 |
| 20260507231518 | 47 | 25 | 0.0 | 0.0 | 0.00 | 0.01 | 0.00 | 90 | 1013.4 |
| 20260507230021 | 48 | 25 | 0.0 | 0.0 | 0.00 | 0.01 | 0.00 | 90 | 1013.5 |
| 20260507224512 | 48 | 303 | 0.0 | 0.0 | 0.00 | 0.01 | 0.00 | 90 | 1013.6 |
| 20260507223010 | 49 | 303 | 0.0 | 0.0 | 0.00 | 0.01 | 0.00 | 89 | 1013.5 |
| 20260507221537 | 49 | 302 | 0.0 | 0.0 | 0.00 | 0.01 | 0.00 | 88 | 1013.4 |
| 20260507220004 | 50 | 302 | 0.0 | 0.0 | 0.00 | 0.01 | 0.01 | 87 | 1013.2 |
| 20260507214504 | 50 | 313 | 0.0 | 0.0 | 0.00 | 0.01 | 0.01 | 86 | 1013.1 |
| 20260507213004 | 51 | 355 | 0.0 | 0.0 | 0.00 | 0.01 | 0.01 | 84 | 1013.1 |
| 20260507211502 | 52 | 355 | 0.0 | 1.7 | 0.00 | 0.01 | 0.01 | 82 | 1013.0 |
| 20260507210002 | 53 | 355 | 0.9 | 2.6 | 0.00 | 0.02 | 0.01 | 81 | 1013.0 |
| 20260507204501 | 53 | 19 | 0.9 | 2.6 | 0.00 | 0.02 | 0.01 | 80 | 1013.0 |
| 20260507203101 | 54 | 32 | 1.7 | 3.5 | 0.00 | 0.02 | 0.01 | 78 | 1013.0 |
| 20260507201620 | 54 | 23 | 0.0 | 0.0 | 0.00 | 0.02 | 0.01 | 77 | 1013.0 |
| 20260507200110 | 55 | 13 | 0.0 | 0.9 | 0.00 | 0.02 | 0.01 | 75 | 1013.0 |
| 20260507194558 | 56 | 5 | 0.0 | 0.0 | 0.00 | 0.02 | 0.01 | 73 | 1012.9 |
| 20260507193057 | 57 | 5 | 1.7 | 3.5 | 0.00 | 0.02 | 0.01 | 71 | 1012.7 |
| 20260507191557 | 58 | 355 | 1.7 | 3.5 | 0.00 | 0.02 | 0.01 | 69 | 1012.6 |
| 20260507190056 | 59 | 360 | 1.7 | 3.5 | 0.00 | 0.02 | 0.01 | 67 | 1012.5 |
| 20260507184555 | 60 | 341 | 2.6 | 5.2 | 0.00 | 0.20 | 0.01 | 66 | 1012.4 |
| 20260507183057 | 60 | 5 | 4.3 | 7.0 | 0.00 | 0.20 | 0.01 | 65 | 1012.3 |
| 20260507181604 | 61 | 349 | 3.5 | 6.1 | 0.00 | 0.20 | 0.01 | 62 | 1012.3 |
| 20260507180055 | 62 | 12 | 4.3 | 8.7 | 0.00 | 0.20 | 0.01 | 62 | 1012.2 |
| 20260507174558 | 62 | 360 | 4.3 | 9.6 | 0.00 | 0.20 | 0.01 | 62 | 1012.2 |
| 20260507173058 | 63 | 360 | 5.2 | 8.7 | 0.00 | 0.20 | 0.01 | 59 | 1012.2 |
| 20260507171601 | 64 | 5 | 4.3 | 7.0 | 0.00 | 0.20 | 0.01 | 58 | 1012.2 |
| 20260507170052 | 64 | 355 | 4.3 | 7.8 | 0.00 | 0.20 | 0.01 | 59 | 1012.2 |
| 20260507164551 | 65 | 12 | 4.3 | 8.7 | 0.00 | 0.20 | 0.01 | 59 | 1012.3 |
| 20260507163050 | 65 | 22 | 4.3 | 7.8 | 0.00 | 0.20 | 0.01 | 59 | 1012.4 |
| 20260507161559 | 66 | 342 | 3.5 | 7.8 | 0.00 | 0.20 | 0.01 | 57 | 1012.4 |
| 20260507160049 | 66 | 340 | 5.2 | 8.7 | 0.00 | 0.20 | 0.01 | 59 | 1012.5 |
| 20260507154549 | 66 | 290 | 3.5 | 7.0 | 0.00 | 0.20 | 0.01 | 55 | 1012.5 |
| 20260507153108 | 66 | 351 | 1.7 | 7.0 | 0.00 | 0.20 | 0.01 | 54 | 1012.5 |